SND1 SBSP-SBFN

Flight info

Callsign SND1
Flight time 3h 24m
Altitude 37000
Route VUMEV UZ14 AMBET UN857 EDVUP DCT 035547S0324031W
Aircraft A319/M-SDE3FGHIRWY/LB1

Departure

Time 2026-04-22 05:18
Airport Congonhas–Deputado Freitas Nobre Airport (SBSP)

Arrival

Time 2026-04-22 08:43
Airport Fernando de Noronha Airport (SBFN)
Time Latitude Longitude Altitude Speed Heading
2026-04-22 05:08 -23.62426 -46.66024 2606 ft 0 kts 238°
2026-04-22 05:12 -23.62416 -46.66006 2606 ft 4 kts 249°
2026-04-22 05:12 -23.62412 -46.65979 2606 ft 4 kts 296°
2026-04-22 05:12 -23.62421 -46.65967 2606 ft 1 kts 326°
2026-04-22 05:12 -23.62423 -46.65965 2607 ft 0 kts 326°
2026-04-22 05:14 -23.62419 -46.65968 2606 ft 2 kts 326°
2026-04-22 05:15 -23.62395 -46.65986 2606 ft 6 kts 326°
2026-04-22 05:15 -23.62344 -46.66021 2604 ft 11 kts 330°
2026-04-22 05:15 -23.62265 -46.66041 2602 ft 12 kts 353°
2026-04-22 05:15 -23.62181 -46.66080 2600 ft 13 kts 328°
2026-04-22 05:16 -23.62100 -46.66133 2597 ft 12 kts 338°
2026-04-22 05:16 -23.62046 -46.66087 2596 ft 11 kts 99°
2026-04-22 05:16 -23.62072 -46.66056 2597 ft 0 kts 148°
2026-04-22 05:17 -23.62107 -46.66032 2599 ft 29 kts 147°
2026-04-22 05:17 -23.62498 -46.65764 2611 ft 104 kts 148°
2026-04-22 05:17 -23.63287 -46.65220 2670 ft 161 kts 148°
2026-04-22 05:18 -23.65106 -46.63741 4007 ft 171 kts 120°
2026-04-22 05:18 -23.65615 -46.62518 4479 ft 185 kts 115°
2026-04-22 05:18 -23.66224 -46.61158 4635 ft 214 kts 117°
2026-04-22 05:19 -23.66958 -46.59615 4888 ft 243 kts 118°
2026-04-22 05:19 -23.67790 -46.57914 5404 ft 260 kts 119°
2026-04-22 05:19 -23.68663 -46.56161 6211 ft 265 kts 119°
2026-04-22 05:19 -23.69553 -46.54381 7015 ft 269 kts 120°
2026-04-22 05:20 -23.70451 -46.52575 7766 ft 272 kts 120°
2026-04-22 05:20 -23.71316 -46.50722 8514 ft 277 kts 113°
2026-04-22 05:20 -23.71779 -46.48670 9250 ft 284 kts 97°
2026-04-22 05:20 -23.71703 -46.46479 9988 ft 291 kts 83°
2026-04-22 05:21 -23.71378 -46.44268 10488 ft 303 kts 83°
2026-04-22 05:21 -23.71038 -46.41906 10684 ft 326 kts 83°
2026-04-22 05:21 -23.70682 -46.39426 11135 ft 335 kts 83°
2026-04-22 05:21 -23.70318 -46.36892 11767 ft 340 kts 83°
2026-04-22 05:22 -23.69958 -46.34365 12402 ft 343 kts 83°
2026-04-22 05:22 -23.69592 -46.31784 13049 ft 347 kts 83°
2026-04-22 05:22 -23.69221 -46.29168 13692 ft 350 kts 83°
2026-04-22 05:22 -23.68847 -46.26531 14273 ft 354 kts 83°
2026-04-22 05:23 -23.68468 -46.23863 14807 ft 358 kts 83°
2026-04-22 05:23 -23.68084 -46.21166 15324 ft 362 kts 82°
2026-04-22 05:23 -23.67682 -46.18436 15843 ft 366 kts 80°
2026-04-22 05:23 -23.66904 -46.15771 16343 ft 372 kts 66°
2026-04-22 05:24 -23.65552 -46.13349 16855 ft 377 kts 52°
2026-04-22 05:24 -23.63696 -46.11318 17372 ft 381 kts 38°
2026-04-22 05:24 -23.61429 -46.09800 17893 ft 384 kts 26°
2026-04-22 05:24 -23.59031 -46.08484 18418 ft 388 kts 26°
2026-04-22 05:25 -23.56614 -46.07153 18877 ft 391 kts 26°
2026-04-22 05:25 -23.54179 -46.05807 19345 ft 393 kts 26°
2026-04-22 05:25 -23.51731 -46.04449 19812 ft 396 kts 26°
2026-04-22 05:25 -23.49270 -46.03081 20284 ft 399 kts 26°
2026-04-22 05:26 -23.46786 -46.01701 20747 ft 402 kts 26°
2026-04-22 05:26 -23.44235 -46.00446 21204 ft 403 kts 18°
2026-04-22 05:26 -23.41510 -45.99709 21666 ft 404 kts
2026-04-22 05:26 -23.38702 -45.99504 22134 ft 405 kts 359°
2026-04-22 05:27 -23.35868 -45.99417 22610 ft 408 kts 360°
2026-04-22 05:27 -23.33018 -45.99318 23089 ft 410 kts 360°
2026-04-22 05:27 -23.30191 -45.99214 23540 ft 413 kts 360°
2026-04-22 05:27 -23.27314 -45.99107 23945 ft 415 kts 360°
2026-04-22 05:28 -23.24415 -45.99002 24300 ft 418 kts 360°
2026-04-22 05:28 -23.21501 -45.98900 24644 ft 420 kts 360°
2026-04-22 05:28 -23.18565 -45.98797 24996 ft 423 kts 360°
2026-04-22 05:28 -23.15608 -45.98693 25331 ft 426 kts 360°
2026-04-22 05:29 -23.12643 -45.98590 25662 ft 428 kts 360°
2026-04-22 05:29 -23.09643 -45.98486 25989 ft 431 kts 360°
2026-04-22 05:29 -23.06626 -45.98380 26319 ft 434 kts 360°
2026-04-22 05:29 -23.03607 -45.98275 26646 ft 436 kts 360°
2026-04-22 05:30 -23.00595 -45.98171 26959 ft 439 kts 360°
2026-04-22 05:30 -22.97536 -45.98063 27264 ft 441 kts 360°
2026-04-22 05:30 -22.94417 -45.97954 27569 ft 444 kts 360°
2026-04-22 05:30 -22.91365 -45.97650 27848 ft 449 kts
2026-04-22 05:31 -22.88334 -45.96756 28128 ft 454 kts 19°
2026-04-22 05:31 -22.85470 -45.95273 28412 ft 459 kts 30°
2026-04-22 05:31 -22.82816 -45.93330 28692 ft 462 kts 34°
2026-04-22 05:31 -22.80175 -45.91331 28975 ft 464 kts 34°
2026-04-22 05:32 -22.77519 -45.89325 29261 ft 467 kts 34°
2026-04-22 05:32 -22.74842 -45.87310 29540 ft 469 kts 34°
2026-04-22 05:32 -22.72149 -45.85287 29809 ft 472 kts 34°
2026-04-22 05:32 -22.69440 -45.83255 30081 ft 474 kts 34°
2026-04-22 05:33 -22.66719 -45.81215 30335 ft 476 kts 34°
2026-04-22 05:33 -22.63988 -45.79163 30543 ft 479 kts 34°
2026-04-22 05:33 -22.61242 -45.77095 30760 ft 481 kts 34°
2026-04-22 05:33 -22.58488 -45.75022 30969 ft 484 kts 34°
2026-04-22 05:34 -22.55723 -45.72945 31181 ft 486 kts 34°
2026-04-22 05:34 -22.52930 -45.70854 31379 ft 488 kts 34°
2026-04-22 05:34 -22.50160 -45.68782 31587 ft 490 kts 34°
2026-04-22 05:34 -22.47355 -45.66683 31887 ft 490 kts 34°
2026-04-22 05:35 -22.44549 -45.64582 32184 ft 490 kts 34°
2026-04-22 05:35 -22.41744 -45.62483 32479 ft 490 kts 34°
2026-04-22 05:35 -22.38940 -45.60385 32782 ft 491 kts 35°
2026-04-22 05:35 -22.36134 -45.58285 33084 ft 491 kts 35°
2026-04-22 05:36 -22.33324 -45.56183 33380 ft 491 kts 35°
2026-04-22 05:36 -22.30508 -45.54082 33686 ft 491 kts 35°
2026-04-22 05:36 -22.27692 -45.51981 33998 ft 492 kts 35°
2026-04-22 05:36 -22.24874 -45.49877 34279 ft 492 kts 35°
2026-04-22 05:37 -22.22061 -45.47775 34542 ft 492 kts 35°
2026-04-22 05:37 -22.19247 -45.45676 34804 ft 492 kts 35°
2026-04-22 05:37 -22.16432 -45.43580 35060 ft 491 kts 35°
2026-04-22 05:37 -22.13622 -45.41486 35314 ft 491 kts 35°
2026-04-22 05:38 -22.10809 -45.39390 35567 ft 491 kts 35°
2026-04-22 05:38 -22.07993 -45.37296 35810 ft 491 kts 35°
2026-04-22 05:38 -22.05214 -45.35228 36017 ft 492 kts 35°
2026-04-22 05:38 -22.02422 -45.33110 36265 ft 491 kts 37°
2026-04-22 05:39 -21.99692 -45.30907 36512 ft 490 kts 38°
2026-04-22 05:39 -21.97007 -45.28631 36726 ft 490 kts 39°
2026-04-22 05:39 -21.94352 -45.26318 36953 ft 490 kts 40°
2026-04-22 05:39 -21.91707 -45.24000 37110 ft 490 kts 40°
2026-04-22 05:40 -21.86406 -45.19437 37139 ft 487 kts 39°
2026-04-22 05:40 -21.81065 -45.14949 37136 ft 487 kts 39°
2026-04-22 05:41 -21.76621 -45.11233 37138 ft 487 kts 39°
2026-04-22 05:41 -21.71282 -45.06747 37139 ft 486 kts 39°
2026-04-22 05:42 -21.65050 -45.01503 37136 ft 486 kts 39°
2026-04-22 05:42 -21.60614 -44.97789 37133 ft 486 kts 39°
2026-04-22 05:43 -21.55283 -44.93320 37133 ft 486 kts 39°
2026-04-22 05:43 -21.49952 -44.88847 37128 ft 486 kts 39°
2026-04-22 05:44 -21.44613 -44.84384 37130 ft 486 kts 39°
2026-04-22 05:44 -21.39280 -44.79926 37133 ft 486 kts 39°
2026-04-22 05:45 -21.33942 -44.75456 37134 ft 486 kts 39°
2026-04-22 05:45 -21.28596 -44.70996 37137 ft 486 kts 39°
2026-04-22 05:46 -21.23247 -44.66554 37138 ft 486 kts 39°
2026-04-22 05:46 -21.17915 -44.62114 37139 ft 485 kts 39°
2026-04-22 05:47 -21.12618 -44.57694 37139 ft 485 kts 39°
2026-04-22 05:47 -21.07252 -44.53225 37146 ft 485 kts 39°
2026-04-22 05:48 -21.01920 -44.48802 37148 ft 485 kts 39°
2026-04-22 05:48 -20.96617 -44.44411 37147 ft 485 kts 39°
2026-04-22 05:49 -20.91283 -44.39993 37149 ft 484 kts 39°
2026-04-22 05:49 -20.85960 -44.35583 37110 ft 484 kts 39°
2026-04-22 05:50 -20.80634 -44.31177 37129 ft 484 kts 39°
2026-04-22 05:50 -20.75311 -44.26779 37132 ft 484 kts 39°
2026-04-22 05:51 -20.69990 -44.22375 37141 ft 484 kts 40°
2026-04-22 05:51 -20.64660 -44.17975 37135 ft 484 kts 39°
2026-04-22 05:52 -20.59349 -44.13559 37136 ft 483 kts 40°
2026-04-22 05:52 -20.54112 -44.09129 37140 ft 483 kts 40°
2026-04-22 05:53 -20.48836 -44.04669 37142 ft 483 kts 40°
2026-04-22 05:53 -20.43506 -44.00293 37139 ft 484 kts 39°
2026-04-22 05:54 -20.38138 -43.95954 37142 ft 484 kts 39°
2026-04-22 05:54 -20.32783 -43.91599 37146 ft 483 kts 39°
2026-04-22 05:55 -20.27451 -43.87236 37145 ft 483 kts 39°
2026-04-22 05:55 -20.22119 -43.82871 37141 ft 483 kts 39°
2026-04-22 05:56 -20.16783 -43.78514 37142 ft 483 kts 39°
2026-04-22 05:56 -20.11435 -43.74169 37142 ft 483 kts 39°
2026-04-22 05:57 -20.06089 -43.69825 37146 ft 483 kts 39°
2026-04-22 05:57 -20.00748 -43.65484 37142 ft 483 kts 39°
2026-04-22 05:58 -19.95407 -43.61138 37145 ft 484 kts 39°
2026-04-22 05:58 -19.90090 -43.56823 37141 ft 484 kts 39°
2026-04-22 05:59 -19.84742 -43.52475 37143 ft 484 kts 39°
2026-04-22 05:59 -19.79398 -43.48126 37137 ft 484 kts 39°
2026-04-22 06:00 -19.74048 -43.43784 37138 ft 484 kts 39°
2026-04-22 06:00 -19.68696 -43.39447 37135 ft 484 kts 39°
2026-04-22 06:01 -19.63344 -43.35111 37136 ft 483 kts 39°
2026-04-22 06:01 -19.58002 -43.30775 37135 ft 483 kts 39°
2026-04-22 06:02 -19.52664 -43.26438 37142 ft 483 kts 39°
2026-04-22 06:02 -19.47358 -43.22137 37138 ft 483 kts 39°
2026-04-22 06:03 -19.42019 -43.17822 37139 ft 483 kts 39°
2026-04-22 06:03 -19.36669 -43.13507 37142 ft 483 kts 39°
2026-04-22 06:04 -19.31323 -43.09194 37125 ft 483 kts 39°
2026-04-22 06:04 -19.25973 -43.04884 37128 ft 483 kts 39°
2026-04-22 06:05 -19.20631 -43.00574 37129 ft 483 kts 39°
2026-04-22 06:05 -19.15284 -42.96265 37126 ft 483 kts 39°
2026-04-22 06:06 -19.09935 -42.91961 37127 ft 483 kts 39°
2026-04-22 06:06 -19.04614 -42.87692 37131 ft 483 kts 39°
2026-04-22 06:07 -18.99265 -42.83398 37131 ft 482 kts 39°
2026-04-22 06:07 -18.93919 -42.79101 37123 ft 482 kts 39°
2026-04-22 06:08 -18.88560 -42.74807 37129 ft 482 kts 39°
2026-04-22 06:08 -18.83211 -42.70532 37118 ft 482 kts 39°
2026-04-22 06:09 -18.77862 -42.66258 37117 ft 482 kts 39°
2026-04-22 06:09 -18.72505 -42.61975 37113 ft 482 kts 39°
2026-04-22 06:10 -18.67159 -42.57689 37110 ft 483 kts 39°
2026-04-22 06:10 -18.61826 -42.53430 37114 ft 483 kts 39°
2026-04-22 06:11 -18.56464 -42.49152 37115 ft 484 kts 39°
2026-04-22 06:11 -18.51094 -42.44880 37110 ft 484 kts 39°
2026-04-22 06:12 -18.45714 -42.40599 37105 ft 483 kts 39°
2026-04-22 06:12 -18.40343 -42.36326 37108 ft 484 kts 39°
2026-04-22 06:13 -18.34974 -42.32055 37106 ft 484 kts 39°
2026-04-22 06:13 -18.29630 -42.27805 37116 ft 484 kts 39°
2026-04-22 06:14 -18.24246 -42.23539 37124 ft 484 kts 39°
2026-04-22 06:14 -18.18866 -42.19272 37114 ft 484 kts 39°
2026-04-22 06:15 -18.13486 -42.15008 37114 ft 484 kts 39°
2026-04-22 06:15 -18.08114 -42.10757 37116 ft 483 kts 39°
2026-04-22 06:16 -18.02745 -42.06506 37115 ft 483 kts 39°
2026-04-22 06:16 -17.97363 -42.02259 37124 ft 483 kts 39°
2026-04-22 06:17 -17.91998 -41.98022 37124 ft 483 kts 39°
2026-04-22 06:17 -17.86629 -41.93780 37124 ft 482 kts 39°
2026-04-22 06:18 -17.81265 -41.89544 37125 ft 482 kts 39°
2026-04-22 06:18 -17.75934 -41.85348 37130 ft 482 kts 39°
2026-04-22 06:19 -17.70570 -41.81137 37134 ft 481 kts 39°
2026-04-22 06:19 -17.65210 -41.76921 37132 ft 481 kts 39°
2026-04-22 06:20 -17.59853 -41.72707 37129 ft 481 kts 39°
2026-04-22 06:20 -17.54504 -41.68499 37134 ft 480 kts 39°
2026-04-22 06:21 -17.49151 -41.64303 37133 ft 480 kts 38°
2026-04-22 06:21 -17.43804 -41.60109 37133 ft 480 kts 38°
2026-04-22 06:22 -17.38466 -41.55918 37137 ft 479 kts 38°
2026-04-22 06:22 -17.33159 -41.51751 37137 ft 479 kts 38°
2026-04-22 06:23 -17.28682 -41.48240 37134 ft 479 kts 38°
2026-04-22 06:23 -17.23385 -41.44099 37133 ft 478 kts 38°
2026-04-22 06:24 -17.15382 -41.37864 37129 ft 478 kts 38°
2026-04-22 06:25 -17.10055 -41.33716 37130 ft 477 kts 38°
2026-04-22 06:25 -17.04734 -41.29553 37126 ft 477 kts 38°
2026-04-22 06:26 -16.99424 -41.25405 37122 ft 476 kts 38°
2026-04-22 06:26 -16.94114 -41.21263 37134 ft 476 kts 38°
2026-04-22 06:27 -16.88803 -41.17133 37123 ft 476 kts 38°
2026-04-22 06:27 -16.83531 -41.13029 37133 ft 475 kts 38°
2026-04-22 06:28 -16.78229 -41.08898 37129 ft 475 kts 38°
2026-04-22 06:28 -16.72927 -41.04783 37127 ft 475 kts 38°
2026-04-22 06:29 -16.67631 -41.00665 37124 ft 475 kts 38°
2026-04-22 06:29 -16.62335 -40.96553 37118 ft 474 kts 38°
2026-04-22 06:30 -16.57035 -40.92457 37121 ft 474 kts 38°
2026-04-22 06:30 -16.51741 -40.88354 37118 ft 474 kts 38°
2026-04-22 06:31 -16.46447 -40.84250 37128 ft 474 kts 38°
2026-04-22 06:31 -16.41152 -40.80152 37115 ft 474 kts 38°
2026-04-22 06:32 -16.35863 -40.76063 37124 ft 473 kts 38°
2026-04-22 06:32 -16.30571 -40.71980 37117 ft 473 kts 38°
2026-04-22 06:33 -16.25282 -40.67899 37117 ft 473 kts 38°
2026-04-22 06:33 -16.19987 -40.63802 37115 ft 473 kts 38°
2026-04-22 06:34 -16.14740 -40.59754 37116 ft 472 kts 37°
2026-04-22 06:34 -16.09453 -40.55690 37118 ft 472 kts 37°
2026-04-22 06:35 -16.04175 -40.51621 37114 ft 472 kts 37°
2026-04-22 06:35 -15.98895 -40.47561 37112 ft 472 kts 37°
2026-04-22 06:36 -15.93621 -40.43507 37109 ft 471 kts 37°
2026-04-22 06:36 -15.88352 -40.39459 37105 ft 471 kts 37°
2026-04-22 06:37 -15.83080 -40.35415 37099 ft 471 kts 37°
2026-04-22 06:37 -15.77815 -40.31385 37098 ft 470 kts 37°
2026-04-22 06:38 -15.72543 -40.27353 37111 ft 470 kts 37°
2026-04-22 06:38 -15.67287 -40.23331 37104 ft 469 kts 37°
2026-04-22 06:39 -15.62027 -40.19305 37106 ft 469 kts 37°
2026-04-22 06:39 -15.56806 -40.15315 37100 ft 468 kts 37°
2026-04-22 06:40 -15.51528 -40.11286 37098 ft 468 kts 37°
2026-04-22 06:40 -15.46310 -40.07314 37098 ft 468 kts 37°
2026-04-22 06:41 -15.41074 -40.03315 37092 ft 467 kts 37°
2026-04-22 06:41 -15.35831 -39.99323 37090 ft 467 kts 37°
2026-04-22 06:42 -15.30594 -39.95349 37089 ft 466 kts 37°
2026-04-22 06:42 -15.25359 -39.91379 37098 ft 466 kts 37°
2026-04-22 06:43 -15.20127 -39.87410 37097 ft 466 kts 37°
2026-04-22 06:43 -15.14904 -39.83443 37089 ft 466 kts 37°
2026-04-22 06:44 -15.09682 -39.79472 37091 ft 465 kts 37°
2026-04-22 06:44 -15.04457 -39.75500 37085 ft 465 kts 37°
2026-04-22 06:45 -14.99234 -39.71550 37088 ft 465 kts 37°
2026-04-22 06:45 -14.94005 -39.67603 37085 ft 465 kts 37°
2026-04-22 06:46 -14.88770 -39.63674 37087 ft 464 kts 37°
2026-04-22 06:46 -14.83546 -39.59751 37080 ft 464 kts 37°
2026-04-22 06:47 -14.78360 -39.55843 37082 ft 464 kts 37°
2026-04-22 06:47 -14.73140 -39.51911 37076 ft 464 kts 37°
2026-04-22 06:48 -14.67928 -39.47995 37067 ft 463 kts 37°
2026-04-22 06:48 -14.62707 -39.44076 37067 ft 463 kts 37°
2026-04-22 06:49 -14.57490 -39.40162 37077 ft 463 kts 37°
2026-04-22 06:49 -14.52269 -39.36257 37064 ft 463 kts 37°
2026-04-22 06:50 -14.47055 -39.32346 37067 ft 463 kts 37°
2026-04-22 06:50 -14.41875 -39.28459 37064 ft 463 kts 37°
2026-04-22 06:51 -14.36666 -39.24554 37061 ft 463 kts 37°
2026-04-22 06:51 -14.31444 -39.20654 37068 ft 463 kts 37°
2026-04-22 06:52 -14.26228 -39.16762 37057 ft 463 kts 37°
2026-04-22 06:52 -14.21013 -39.12857 37060 ft 463 kts 37°
2026-04-22 06:53 -14.15800 -39.08960 37055 ft 463 kts 37°
2026-04-22 06:53 -14.10588 -39.05071 37055 ft 462 kts 37°
2026-04-22 06:54 -14.05410 -39.01215 37052 ft 462 kts 37°
2026-04-22 06:54 -14.00194 -38.97339 37056 ft 462 kts 36°
2026-04-22 06:55 -13.94979 -38.93462 37047 ft 461 kts 37°
2026-04-22 06:55 -13.89783 -38.89589 37041 ft 461 kts 37°
2026-04-22 06:56 -13.84585 -38.85717 37044 ft 461 kts 36°
2026-04-22 06:56 -13.79385 -38.81840 37044 ft 460 kts 36°
2026-04-22 06:57 -13.74205 -38.77988 37047 ft 459 kts 36°
2026-04-22 06:57 -13.69026 -38.74139 37046 ft 459 kts 36°
2026-04-22 06:58 -13.63852 -38.70298 37038 ft 458 kts 36°
2026-04-22 06:58 -13.58711 -38.66486 37043 ft 458 kts 36°
2026-04-22 06:59 -13.53547 -38.62651 37028 ft 458 kts 36°
2026-04-22 06:59 -13.48384 -38.58820 37030 ft 457 kts 36°
2026-04-22 07:00 -13.43219 -38.55000 37028 ft 457 kts 36°
2026-04-22 07:00 -13.38066 -38.51179 37027 ft 457 kts 36°
2026-04-22 07:01 -13.32902 -38.47354 37031 ft 456 kts 36°
2026-04-22 07:01 -13.27751 -38.43549 37022 ft 456 kts 36°
2026-04-22 07:02 -13.22608 -38.39743 37030 ft 455 kts 36°
2026-04-22 07:02 -13.17466 -38.35936 37030 ft 455 kts 36°
2026-04-22 07:03 -13.12361 -38.32174 37028 ft 454 kts 35°
2026-04-22 07:03 -13.07234 -38.28397 37025 ft 453 kts 35°
2026-04-22 07:04 -13.02123 -38.24617 37012 ft 453 kts 35°
2026-04-22 07:04 -12.97010 -38.20841 37020 ft 452 kts 35°
2026-04-22 07:05 -12.91901 -38.17079 37024 ft 452 kts 35°
2026-04-22 07:05 -12.87657 -38.13965 37019 ft 451 kts 35°
2026-04-22 07:06 -12.82559 -38.10214 37020 ft 451 kts 35°
2026-04-22 07:06 -12.77462 -38.06459 37021 ft 450 kts 35°
2026-04-22 07:07 -12.72377 -38.02716 37020 ft 450 kts 35°
2026-04-22 07:07 -12.67293 -37.98976 37021 ft 449 kts 35°
2026-04-22 07:08 -12.62208 -37.95242 37017 ft 449 kts 35°
2026-04-22 07:08 -12.57132 -37.91511 37020 ft 448 kts 34°
2026-04-22 07:09 -12.52093 -37.87814 37013 ft 448 kts 34°
2026-04-22 07:09 -12.47014 -37.84093 37017 ft 448 kts 34°
2026-04-22 07:10 -12.41949 -37.80379 37013 ft 448 kts 34°
2026-04-22 07:10 -12.36877 -37.76662 37015 ft 448 kts 34°
2026-04-22 07:11 -12.31816 -37.72951 37012 ft 448 kts 34°
2026-04-22 07:11 -12.26756 -37.69237 37006 ft 447 kts 33°
2026-04-22 07:12 -12.21690 -37.65531 37004 ft 447 kts 33°
2026-04-22 07:12 -12.16630 -37.61836 37008 ft 446 kts 33°
2026-04-22 07:13 -12.11581 -37.58148 37001 ft 446 kts 33°
2026-04-22 07:13 -12.06534 -37.54467 37001 ft 445 kts 33°
2026-04-22 07:14 -12.01534 -37.50807 37004 ft 445 kts 33°
2026-04-22 07:14 -11.96504 -37.47121 36995 ft 444 kts 32°
2026-04-22 07:15 -11.91474 -37.43449 36988 ft 444 kts 32°
2026-04-22 07:15 -11.86440 -37.39795 36979 ft 444 kts 32°
2026-04-22 07:16 -11.81396 -37.36147 36979 ft 444 kts 32°
2026-04-22 07:16 -11.76351 -37.32510 36989 ft 444 kts 32°
2026-04-22 07:17 -11.71316 -37.28869 36985 ft 444 kts 32°
2026-04-22 07:17 -11.66277 -37.25213 36979 ft 444 kts 32°
2026-04-22 07:18 -11.61235 -37.21568 36988 ft 444 kts 32°
2026-04-22 07:18 -11.56194 -37.17934 36984 ft 443 kts 32°
2026-04-22 07:19 -11.51155 -37.14295 36977 ft 443 kts 32°
2026-04-22 07:19 -11.46123 -37.10654 36977 ft 443 kts 32°
2026-04-22 07:20 -11.41130 -37.07044 36981 ft 443 kts 32°
2026-04-22 07:20 -11.36089 -37.03411 36980 ft 443 kts 32°
2026-04-22 07:21 -11.31046 -36.99780 36981 ft 443 kts 32°
2026-04-22 07:21 -11.26009 -36.96145 36979 ft 443 kts 32°
2026-04-22 07:22 -11.20978 -36.92515 36981 ft 443 kts 32°
2026-04-22 07:22 -11.15946 -36.88896 36978 ft 443 kts 32°
2026-04-22 07:23 -11.10911 -36.85272 36977 ft 443 kts 32°
2026-04-22 07:23 -11.05909 -36.81678 36974 ft 443 kts 32°
2026-04-22 07:24 -11.00872 -36.78050 36975 ft 442 kts 32°
2026-04-22 07:24 -10.95846 -36.74437 36972 ft 442 kts 32°
2026-04-22 07:25 -10.90806 -36.70816 36975 ft 442 kts 32°
2026-04-22 07:25 -10.85776 -36.67203 36980 ft 442 kts 32°
2026-04-22 07:26 -10.80782 -36.63618 36982 ft 442 kts 32°
2026-04-22 07:26 -10.75752 -36.60033 36981 ft 441 kts 32°
2026-04-22 07:27 -10.70718 -36.56460 36981 ft 441 kts 32°
2026-04-22 07:27 -10.65691 -36.52885 36978 ft 440 kts 32°
2026-04-22 07:28 -10.58167 -36.47525 36974 ft 440 kts 32°
2026-04-22 07:28 -10.53153 -36.43960 36974 ft 440 kts 32°
2026-04-22 07:29 -10.48142 -36.40399 36976 ft 439 kts 32°
2026-04-22 07:29 -10.43127 -36.36841 36979 ft 440 kts 32°
2026-04-22 07:30 -10.38143 -36.33307 36981 ft 439 kts 32°
2026-04-22 07:30 -10.33123 -36.29745 36983 ft 439 kts 32°
2026-04-22 07:31 -10.28110 -36.26184 36983 ft 439 kts 32°
2026-04-22 07:31 -10.23099 -36.22628 36987 ft 438 kts 33°
2026-04-22 07:32 -10.18106 -36.19081 36986 ft 438 kts 33°
2026-04-22 07:32 -10.13114 -36.15543 36982 ft 437 kts 33°
2026-04-22 07:33 -10.08123 -36.12016 36980 ft 437 kts 33°
2026-04-22 07:33 -10.03141 -36.08490 36980 ft 436 kts 33°
2026-04-22 07:34 -9.98158 -36.04967 36979 ft 436 kts 33°
2026-04-22 07:34 -9.93181 -36.01443 36970 ft 436 kts 33°
2026-04-22 07:35 -9.88206 -35.97920 36975 ft 436 kts 33°
2026-04-22 07:35 -9.83230 -35.94395 36971 ft 436 kts 33°
2026-04-22 07:36 -9.78255 -35.90874 36965 ft 436 kts 33°
2026-04-22 07:36 -9.73268 -35.87357 36961 ft 436 kts 33°
2026-04-22 07:37 -9.68310 -35.83856 36955 ft 436 kts 33°
2026-04-22 07:37 -9.63303 -35.80315 36949 ft 436 kts 33°
2026-04-22 07:38 -9.58355 -35.76823 36948 ft 436 kts 33°
2026-04-22 07:38 -9.53365 -35.73314 36953 ft 436 kts 33°
2026-04-22 07:39 -9.48379 -35.69801 36955 ft 436 kts 33°
2026-04-22 07:39 -9.43405 -35.66288 36959 ft 435 kts 33°
2026-04-22 07:40 -9.38434 -35.62780 36964 ft 435 kts 33°
2026-04-22 07:40 -9.33458 -35.59281 36968 ft 435 kts 33°
2026-04-22 07:41 -9.28485 -35.55778 36978 ft 435 kts 33°
2026-04-22 07:41 -9.23505 -35.52277 36979 ft 435 kts 33°
2026-04-22 07:42 -9.18527 -35.48775 36979 ft 435 kts 34°
2026-04-22 07:42 -9.13556 -35.45272 36976 ft 435 kts 34°
2026-04-22 07:43 -9.08586 -35.41777 36978 ft 435 kts 34°
2026-04-22 07:43 -9.03613 -35.38286 36974 ft 435 kts 34°
2026-04-22 07:44 -8.98680 -35.34814 36974 ft 435 kts 34°
2026-04-22 07:44 -8.93710 -35.31321 36974 ft 435 kts 34°
2026-04-22 07:45 -8.88735 -35.27827 36973 ft 435 kts 34°
2026-04-22 07:45 -8.84592 -35.24919 36977 ft 435 kts 34°
2026-04-22 07:46 -8.78806 -35.20857 36975 ft 435 kts 34°
2026-04-22 07:46 -8.74640 -35.17935 36977 ft 435 kts 34°
2026-04-22 07:47 -8.69667 -35.14444 36970 ft 435 kts 34°
2026-04-22 07:47 -8.64728 -35.10979 36970 ft 435 kts 34°
2026-04-22 07:48 -8.59756 -35.07495 36964 ft 435 kts 34°
2026-04-22 07:48 -8.54775 -35.04010 36963 ft 435 kts 34°
2026-04-22 07:49 -8.49794 -35.00528 36965 ft 435 kts 34°
2026-04-22 07:49 -8.44818 -34.97037 36961 ft 435 kts 34°
2026-04-22 07:50 -8.39840 -34.93549 36961 ft 435 kts 34°
2026-04-22 07:50 -8.34861 -34.90065 36965 ft 435 kts 34°
2026-04-22 07:51 -8.29880 -34.86580 36962 ft 435 kts 34°
2026-04-22 07:51 -8.24909 -34.83101 36962 ft 434 kts 34°
2026-04-22 07:52 -8.19940 -34.79625 36962 ft 434 kts 34°
2026-04-22 07:52 -8.15026 -34.76065 36962 ft 434 kts 37°
2026-04-22 07:53 -8.10349 -34.72286 36962 ft 433 kts 39°
2026-04-22 07:53 -8.05694 -34.68428 36965 ft 433 kts 38°
2026-04-22 07:54 -8.01000 -34.64624 36968 ft 433 kts 38°
2026-04-22 07:54 -7.96276 -34.60854 36966 ft 432 kts 38°
2026-04-22 07:55 -7.91571 -34.57098 36972 ft 431 kts 38°
2026-04-22 07:55 -7.86868 -34.53333 36970 ft 430 kts 38°
2026-04-22 07:56 -7.82182 -34.49582 36968 ft 430 kts 38°
2026-04-22 07:56 -7.77502 -34.45834 36965 ft 429 kts 38°
2026-04-22 07:57 -7.72439 -34.42752 36964 ft 428 kts 27°
2026-04-22 07:57 -7.67114 -34.39985 36962 ft 428 kts 27°
2026-04-22 07:58 -7.61855 -34.37244 36964 ft 427 kts 27°
2026-04-22 07:58 -7.56573 -34.34501 36959 ft 427 kts 27°
2026-04-22 07:59 -7.51299 -34.31758 36963 ft 426 kts 27°
2026-04-22 07:59 -7.46024 -34.29012 36962 ft 426 kts 27°
2026-04-22 08:00 -7.40745 -34.26277 36960 ft 426 kts 27°
2026-04-22 08:00 -7.35472 -34.23543 36960 ft 425 kts 27°
2026-04-22 08:01 -7.30243 -34.20830 36959 ft 425 kts 27°
2026-04-22 08:01 -7.24987 -34.18088 36960 ft 424 kts 27°
2026-04-22 08:02 -7.19731 -34.15353 36955 ft 424 kts 27°
2026-04-22 08:02 -7.14517 -34.12649 36956 ft 424 kts 27°
2026-04-22 08:03 -7.09270 -34.09931 36959 ft 423 kts 27°
2026-04-22 08:03 -7.04035 -34.07207 36957 ft 423 kts 27°
2026-04-22 08:04 -6.98796 -34.04472 36954 ft 423 kts 28°
2026-04-22 08:04 -6.93566 -34.01754 36957 ft 422 kts 28°
2026-04-22 08:05 -6.88374 -33.99065 36959 ft 422 kts 27°
2026-04-22 08:05 -6.83141 -33.96363 36959 ft 422 kts 28°
2026-04-22 08:06 -6.77920 -33.93661 36960 ft 421 kts 28°
2026-04-22 08:06 -6.72708 -33.90954 36954 ft 421 kts 28°
2026-04-22 08:07 -6.67500 -33.88257 36952 ft 421 kts 28°
2026-04-22 08:07 -6.62294 -33.85570 36954 ft 420 kts 28°
2026-04-22 08:08 -6.57094 -33.82878 36954 ft 420 kts 28°
2026-04-22 08:08 -6.51893 -33.80179 36954 ft 420 kts 28°
2026-04-22 08:09 -6.46690 -33.77485 36949 ft 420 kts 28°
2026-04-22 08:09 -6.41529 -33.74813 36947 ft 420 kts 28°
2026-04-22 08:10 -6.36336 -33.72129 36951 ft 420 kts 28°
2026-04-22 08:10 -6.31138 -33.69447 36955 ft 419 kts 28°
2026-04-22 08:11 -6.25949 -33.66763 36949 ft 419 kts 28°
2026-04-22 08:11 -6.20761 -33.64079 36951 ft 419 kts 28°
2026-04-22 08:12 -6.15577 -33.61396 36951 ft 419 kts 28°
2026-04-22 08:12 -6.10389 -33.58720 36954 ft 419 kts 28°
2026-04-22 08:13 -6.05238 -33.56063 36951 ft 418 kts 28°
2026-04-22 08:13 -6.00051 -33.53387 36956 ft 418 kts 28°
2026-04-22 08:14 -5.94880 -33.50714 36955 ft 418 kts 28°
2026-04-22 08:14 -5.89704 -33.48041 36955 ft 418 kts 28°
2026-04-22 08:15 -5.84536 -33.45370 36954 ft 417 kts 28°
2026-04-22 08:15 -5.79371 -33.42707 36954 ft 417 kts 28°
2026-04-22 08:16 -5.74205 -33.40048 36951 ft 417 kts 28°
2026-04-22 08:16 -5.69041 -33.37386 36952 ft 417 kts 28°
2026-04-22 08:17 -5.63877 -33.34716 36682 ft 417 kts 28°
2026-04-22 08:17 -5.61298 -33.33382 36433 ft 417 kts 28°
2026-04-22 08:17 -5.58708 -33.32047 36144 ft 417 kts 28°
2026-04-22 08:18 -5.56119 -33.30715 35521 ft 418 kts 28°
2026-04-22 08:18 -5.53533 -33.29383 34987 ft 417 kts 28°
2026-04-22 08:18 -5.50963 -33.28056 34500 ft 414 kts 28°
2026-04-22 08:18 -5.48438 -33.26757 34037 ft 412 kts 28°
2026-04-22 08:19 -5.45894 -33.25452 33527 ft 409 kts 28°
2026-04-22 08:19 -5.43367 -33.24152 33017 ft 407 kts 28°
2026-04-22 08:19 -5.40851 -33.22856 32511 ft 404 kts 28°
2026-04-22 08:19 -5.38357 -33.21569 32017 ft 402 kts 28°
2026-04-22 08:20 -5.35878 -33.20286 31539 ft 400 kts 28°
2026-04-22 08:20 -5.33411 -33.19013 31063 ft 398 kts 28°
2026-04-22 08:20 -5.30955 -33.17748 30614 ft 395 kts 28°
2026-04-22 08:20 -5.28515 -33.16492 30172 ft 394 kts 28°
2026-04-22 08:21 -5.26085 -33.15243 29689 ft 392 kts 28°
2026-04-22 08:21 -5.23662 -33.13998 29200 ft 390 kts 28°
2026-04-22 08:21 -5.21250 -33.12756 28746 ft 388 kts 28°
2026-04-22 08:21 -5.18855 -33.11526 28478 ft 387 kts 28°
2026-04-22 08:22 -5.16460 -33.10295 28229 ft 386 kts 28°
2026-04-22 08:22 -5.14069 -33.09067 27974 ft 385 kts 28°
2026-04-22 08:22 -5.11687 -33.07842 27729 ft 384 kts 28°
2026-04-22 08:22 -5.09313 -33.06620 27482 ft 383 kts 28°
2026-04-22 08:23 -5.06965 -33.05412 27163 ft 377 kts 28°
2026-04-22 08:23 -5.04631 -33.04211 26747 ft 375 kts 28°
2026-04-22 08:23 -5.02316 -33.03023 26321 ft 373 kts 27°
2026-04-22 08:23 -5.00012 -33.01843 25892 ft 371 kts 27°
2026-04-22 08:24 -4.97711 -33.00665 25443 ft 370 kts 27°
2026-04-22 08:24 -4.95453 -32.99507 25011 ft 368 kts 27°
2026-04-22 08:24 -4.93175 -32.98339 24551 ft 368 kts 27°
2026-04-22 08:24 -4.90897 -32.97170 24094 ft 367 kts 27°
2026-04-22 08:25 -4.88629 -32.96003 23633 ft 367 kts 27°
2026-04-22 08:25 -4.86360 -32.94836 23114 ft 366 kts 27°
2026-04-22 08:25 -4.84097 -32.93671 22653 ft 364 kts 28°
2026-04-22 08:25 -4.81846 -32.92513 22201 ft 362 kts 28°
2026-04-22 08:26 -4.79615 -32.91363 21753 ft 360 kts 28°
2026-04-22 08:26 -4.77395 -32.90219 21312 ft 358 kts 28°
2026-04-22 08:26 -4.75186 -32.89079 20874 ft 357 kts 28°
2026-04-22 08:26 -4.72982 -32.87942 20445 ft 356 kts 28°
2026-04-22 08:27 -4.70780 -32.86809 20014 ft 355 kts 28°
2026-04-22 08:27 -4.69298 -32.86049 19723 ft 354 kts 28°
2026-04-22 08:27 -4.67135 -32.84940 19300 ft 353 kts 28°
2026-04-22 08:27 -4.64946 -32.83820 18874 ft 353 kts 28°
2026-04-22 08:28 -4.62760 -32.82701 18452 ft 353 kts 28°
2026-04-22 08:28 -4.60554 -32.81616 17989 ft 354 kts 23°
2026-04-22 08:28 -4.58186 -32.80949 17559 ft 354 kts 12°
2026-04-22 08:28 -4.55771 -32.80458 17115 ft 353 kts 13°
2026-04-22 08:29 -4.53369 -32.79966 16689 ft 351 kts 13°
2026-04-22 08:29 -4.50976 -32.79473 16271 ft 350 kts 13°
2026-04-22 08:29 -4.48588 -32.78983 15853 ft 349 kts 13°
2026-04-22 08:29 -4.46214 -32.78495 15439 ft 348 kts 13°
2026-04-22 08:30 -4.43836 -32.78007 15022 ft 348 kts 13°
2026-04-22 08:30 -4.41468 -32.77518 14614 ft 347 kts 13°
2026-04-22 08:30 -4.39108 -32.77029 14208 ft 346 kts 13°
2026-04-22 08:30 -4.36751 -32.76541 13796 ft 345 kts 13°
2026-04-22 08:31 -4.34403 -32.76056 13347 ft 344 kts 13°
2026-04-22 08:31 -4.32056 -32.75572 12933 ft 342 kts 13°
2026-04-22 08:31 -4.27416 -32.74619 12096 ft 338 kts 13°
2026-04-22 08:32 -4.25123 -32.74150 11676 ft 336 kts 12°
2026-04-22 08:32 -4.22838 -32.73682 11277 ft 333 kts 12°
2026-04-22 08:32 -4.20605 -32.73225 10858 ft 332 kts 12°
2026-04-22 08:32 -4.18356 -32.72763 10452 ft 330 kts 12°
2026-04-22 08:33 -4.16122 -32.72302 10073 ft 324 kts 12°
2026-04-22 08:33 -4.13926 -32.71847 9709 ft 315 kts 12°
2026-04-22 08:33 -4.11821 -32.71413 9387 ft 306 kts 12°
2026-04-22 08:33 -4.09758 -32.70990 9001 ft 299 kts 12°
2026-04-22 08:34 -4.07738 -32.70575 8544 ft 295 kts 12°
2026-04-22 08:34 -4.05732 -32.70163 8067 ft 292 kts 12°
2026-04-22 08:34 -4.03749 -32.69757 7577 ft 289 kts 12°
2026-04-22 08:34 -4.01782 -32.69353 7102 ft 287 kts 12°
2026-04-22 08:35 -3.99847 -32.68954 6766 ft 278 kts 12°
2026-04-22 08:35 -3.98004 -32.68576 6647 ft 262 kts 12°
2026-04-22 08:35 -3.96270 -32.68222 6533 ft 247 kts 12°
2026-04-22 08:35 -3.94619 -32.67884 6306 ft 239 kts 12°
2026-04-22 08:36 -3.93062 -32.67531 6176 ft 226 kts 18°
2026-04-22 08:36 -3.91633 -32.66936 6051 ft 213 kts 25°
2026-04-22 08:36 -3.90324 -32.66341 5849 ft 207 kts 25°
2026-04-22 08:36 -3.89020 -32.65752 5556 ft 205 kts 25°
2026-04-22 08:37 -3.87725 -32.65168 5253 ft 204 kts 25°
2026-04-22 08:37 -3.86436 -32.64590 4968 ft 202 kts 25°
2026-04-22 08:37 -3.85233 -32.63885 4663 ft 200 kts 43°
2026-04-22 08:37 -3.84391 -32.62795 4354 ft 198 kts 65°
2026-04-22 08:38 -3.84024 -32.61490 4099 ft 193 kts 85°
2026-04-22 08:38 -3.84079 -32.60154 3740 ft 192 kts 95°
2026-04-22 08:38 -3.84183 -32.58828 3294 ft 191 kts 95°
2026-04-22 08:38 -3.84286 -32.57501 2828 ft 191 kts 94°
2026-04-22 08:39 -3.84384 -32.56222 2646 ft 175 kts 94°
2026-04-22 08:39 -3.84470 -32.55078 2529 ft 154 kts 94°
2026-04-22 08:39 -3.84548 -32.54048 2343 ft 144 kts 94°
2026-04-22 08:39 -3.84624 -32.53067 2154 ft 139 kts 94°
2026-04-22 08:40 -3.84698 -32.52118 1974 ft 138 kts 94°
2026-04-22 08:40 -3.84772 -32.51163 1793 ft 137 kts 94°
2026-04-22 08:40 -3.84844 -32.50213 1615 ft 137 kts 94°
2026-04-22 08:40 -3.84917 -32.49262 1434 ft 137 kts 95°
2026-04-22 08:41 -3.84989 -32.48314 1247 ft 136 kts 95°
2026-04-22 08:41 -3.85062 -32.47367 1067 ft 136 kts 95°
2026-04-22 08:41 -3.85134 -32.46426 886 ft 135 kts 94°
2026-04-22 08:41 -3.85202 -32.45497 721 ft 133 kts 94°
2026-04-22 08:42 -3.85272 -32.44580 550 ft 131 kts 94°
2026-04-22 08:42 -3.85340 -32.43671 360 ft 130 kts 95°
2026-04-22 08:42 -3.85407 -32.42790 183 ft 120 kts 94°
2026-04-22 08:42 -3.85453 -32.42203 178 ft 57 kts 94°
2026-04-22 08:43 -3.85476 -32.41883 177 ft 40 kts 94°
2026-04-22 08:43 -3.85493 -32.41654 175 ft 28 kts 94°
2026-04-22 08:43 -3.85482 -32.41532 173 ft 12 kts 48°
2026-04-22 08:43 -3.85498 -32.41510 172 ft 7 kts 224°
2026-04-22 08:44 -3.85500 -32.41558 173 ft 8 kts 275°
2026-04-22 08:44 -3.85495 -32.41622 174 ft 11 kts 274°
2026-04-22 08:44 -3.85489 -32.41711 175 ft 15 kts 274°
2026-04-22 08:44 -3.85480 -32.41828 176 ft 19 kts 274°
2026-04-22 08:45 -3.85470 -32.41971 179 ft 22 kts 274°
2026-04-22 08:45 -3.85457 -32.42137 179 ft 26 kts 274°
2026-04-22 08:45 -3.85442 -32.42339 177 ft 32 kts 274°
2026-04-22 08:45 -3.85425 -32.42562 181 ft 32 kts 275°
2026-04-22 08:46 -3.85407 -32.42782 182 ft 32 kts 274°
2026-04-22 08:46 -3.85396 -32.42965 189 ft 16 kts 260°
2026-04-22 08:46 -3.85479 -32.42961 194 ft 14 kts 146°
2026-04-22 08:46 -3.85539 -32.42922 187 ft 7 kts 155°
2026-04-22 08:47 -3.85576 -32.42920 183 ft 4 kts 180°
2026-04-22 08:47 -3.85594 -32.42908 182 ft 0 kts 135°